Regional Weather Roundup
Issued by NWS

Home | Current Version | Previous Version | Text Only | Print | Product List | Glossary Off
Versions: 1 2 3 4 5 6 7 8 9 10 11 12 13 14 15 16 17 18 19 20 21 22 23 24 25 26 27 28 29 30 31 32 33 34 35 36 37 38 39 40 41 42 43 44 45 46 47 48 49 50

000
ASUS43 KOAX 270002
RWRNE

WEATHER ROUNDUP FOR NEBRASKA
NATIONAL WEATHER SERVICE OMAHA NE
700 PM CDT TUE JUL 26 2016

NOTES: SATELLITE DATA IS BEING USED TO AUGMENT CLOUD COVER ABOVE
       12000 FEET.
       "FAIR" INDICATES FEW OR NO CLOUDS BELOW 12,000 FEET WITH NO
       SIGNIFICANT WEATHER AND/OR OBSTRUCTIONS TO VISIBILITY.

  * THESE STATIONS DO NOT REPORT WEATHER SUCH AS RAIN...SNOW OR FOG.

NEZ001>004-019>022-054>056-270100-
NEBRASKA PANHANDLE

CITY           SKY/WX    TMP DP  RH WIND       PRES   REMARKS
SCOTTSBLUFF    MOSUNNY   85  58  39 S9        29.98S
6HR MIN TEMP:  83; 6HR MAX TEMP:  94;

ALLIANCE       CLOUDY    85  63  47 SE12      29.97F
6HR MIN TEMP:  85; 6HR MAX TEMP:  94;

CHADRON        SUNNY     95  56  26 NE3       29.91F HX  93
6HR MIN TEMP:  85; 6HR MAX TEMP:  96;

KIMBALL        CLOUDY    87  44  21 NW5       30.07F
SIDNEY         CLOUDY    92  39  15 W8        30.02F
6HR MIN TEMP:  89; 6HR MAX TEMP:  96;

$$

NEZ057>060-069>072-079>082-270100-
SOUTHWEST NEBRASKA

CITY           SKY/WX    TMP DP  RH WIND       PRES   REMARKS
NORTH PLATTE   SUNNY     86  67  52 SE9G20    29.96F
6HR MIN TEMP:  84; 6HR MAX TEMP:  88;

IMPERIAL       CLOUDY    89  61  38 S14       29.97F
6HR MIN TEMP:  86; 6HR MAX TEMP:  93;

LEXINGTON      SUNNY     85  65  49 S14       29.99R
MCCOOK         MOSUNNY   88  62  41 SE14      29.97F
6HR MIN TEMP:  87; 6HR MAX TEMP:  93;

OGALLALA       CLOUDY    90  60  36 S14G20    29.97S HX  90
$$

NEZ005>010-023>029-035>040-094-270100-
NORTH CENTRAL NEBRASKA

CITY           SKY/WX    TMP DP  RH WIND       PRES   REMARKS
VALENTINE      SUNNY     92  63  38 S16       29.91F HX  93
6HR MIN TEMP:  86; 6HR MAX TEMP:  94;

AINSWORTH      SUNNY     87  63  45 S15G21    29.96F
BROKEN BOW     SUNNY     84  67  56 S13G24    30.00R
6HR MIN TEMP:  81; 6HR MAX TEMP:  86;

O`NEILL        SUNNY     87  62  42 S15       29.98S
ORD            SUNNY     84  64  50 SE13      29.97F
6HR MIN TEMP:  83; 6HR MAX TEMP:  87;

THEDFORD       MOSUNNY   87  67  52 S14       30.00F HX  90
$$

NEZ041-046>049-061>064-073>077-083>087-270100-
SOUTH CENTRAL NEBRASKA

CITY           SKY/WX    TMP DP  RH WIND       PRES   REMARKS
GRAND ISLAND   SUNNY     86  66  51 SE8       30.00S
6HR MIN TEMP:  84; 6HR MAX TEMP:  88;

AURORA         SUNNY     85  67  55 SE5       30.00R
HASTINGS       SUNNY     87  63  44 S9        30.00R
6HR MIN TEMP:  84; 6HR MAX TEMP:  89;

HEBRON         MOSUNNY   85  64  48 S6        29.98S
HOLDREGE       SUNNY     86  64  47 SE10      29.99R
KEARNEY *      SUNNY     86  63  45 S10       30.00R
YORK           MOSUNNY   82  66  57 E12       30.00S
$$

NEZ011>018-030>034-042>045-270100-
NORTHEAST NEBRASKA

CITY           SKY/WX    TMP DP  RH WIND       PRES   REMARKS
NORFOLK        SUNNY     83  64  52 SE13      29.99S
6HR MIN TEMP:  82; 6HR MAX TEMP:  86;

ALBION         SUNNY     82  66  57 SE9       29.99F
BLAIR          SUNNY     83  67  59 E8        30.01S
FREMONT        SUNNY     83  65  54 S7        30.00F
TEKAMAH        SUNNY     84  65  52 SE9       29.99F
6HR MIN TEMP:  84; 6HR MAX TEMP:  88;

WAYNE          SUNNY     82  69  65 SE8       30.00S
$$

NEZ050>053-065>068-078-088>093-270100-
SOUTHEAST NEBRASKA

CITY           SKY/WX    TMP DP  RH WIND       PRES   REMARKS
LINCOLN        SUNNY     85  63  47 E13       30.00F
6HR MIN TEMP:  85; 6HR MAX TEMP:  89;

OMAHA EPPLEY   MOSUNNY   85  66  53 SE9       29.99F
6HR MIN TEMP:  85; 6HR MAX TEMP:  87;

BEATRICE       SUNNY     87  63  45 E6        29.99R
FALLS CITY     SUNNY     84  69  60 E7        29.99R
6HR MIN TEMP:  84; 6HR MAX TEMP:  88;

NEBRASKA CITY  SUNNY     82  65  56 E3        30.01S
PLATTSMOUTH    SUNNY     83  66  56 SE8       30.00F
$$

NEZ044-045-051>053-067-270100-
OMAHA AREA

CITY           SKY/WX    TMP DP  RH WIND       PRES   REMARKS
OMAHA EPPLEY   MOSUNNY   85  66  53 SE9       29.99F
6HR MIN TEMP:  85; 6HR MAX TEMP:  87;

BLAIR          SUNNY     83  67  59 E8        30.01S
FREMONT        SUNNY     83  65  54 S7        30.00F
MILLARD        SUNNY     84  67  56 SE7       29.99F
OFFUTT AFB     SUNNY     84  67  55 E8        30.00F
PLATTSMOUTH    SUNNY     83  66  56 SE8       30.00F
WAHOO          FAIR      83  66  57 SE7       29.99F
$$




USA.gov is the U.S. government's official web portal to all federal, state and local government web resources and services.